Date String (YYYY-MM-DD hh:mm:ss) UTC,Instrument flags,Ambient pressure (hPa),Sample flow (lpm),Bypass flow (lpm),Sample temperature (°C),Ambient temperature (°C),ASC tube jacket temperature (°C),LED temperature (°C),Box temperature (°C),Sample RH (%),Span deviation,Mass concentration (μg/m³),Mass concentration (μg/m³),Mass concentration (μg/m³)
DateTimeUTC,F1_M11,P_M11,Q1_M11,Q2_M11,T1_M11,T2_M11,T3_M11,T4_M11,T5_M11,U1_M11,ZSPAN_M11,X2_M11,X0_M11,X1_M11
2022-11-15 19:00:00,,0831.5,4.98,0.00,20.9,19.3,00.0,29.9,22.5,14.0,0000.0,0006.67,0009.11,0006.34
2022-11-15 19:01:00,,0831.4,5.00,0.00,20.9,19.1,00.0,29.9,22.4,14.2,0000.0,0006.63,0009.06,0006.30
2022-11-15 19:02:00,,0831.4,5.00,0.00,20.8,18.9,00.0,29.9,22.4,14.1,0000.0,0006.60,0008.99,0006.28
2022-11-15 19:03:00,,0831.4,5.01,0.00,20.8,18.7,00.0,29.9,22.3,14.1,0000.0,0006.56,0008.94,0006.26
2022-11-15 19:04:00,,0831.4,5.01,0.00,20.7,18.7,00.0,29.8,22.3,14.0,0000.0,0006.53,0008.87,0006.23
2022-11-15 19:05:00,,0831.4,5.00,0.00,20.7,18.6,00.0,29.8,22.2,14.0,0000.0,0006.50,0008.80,0006.20
2022-11-15 19:06:00,,0831.4,4.99,0.00,20.7,18.8,00.0,29.8,22.2,14.0,0000.0,0006.48,0008.83,0006.16
2022-11-15 19:07:00,,0831.5,5.01,0.00,20.7,20.3,00.0,29.7,22.5,14.3,0000.0,0006.46,0008.91,0006.12
2022-11-15 19:08:00,,0831.5,5.00,0.00,20.9,21.4,00.0,29.7,22.9,13.9,0000.0,0006.39,0008.90,0006.06
2022-11-15 19:09:00,,0831.5,4.99,0.00,21.0,21.2,00.0,29.8,22.9,13.4,0000.0,0006.33,0008.77,0006.01
2022-11-15 19:10:00,,0831.5,4.99,0.00,21.0,20.8,00.0,29.8,22.8,13.3,0000.0,0006.26,0008.61,0005.96
2022-11-15 19:11:00,,0831.4,5.01,0.00,21.0,20.4,00.0,29.9,22.7,13.6,0000.0,0006.22,0008.60,0005.92
2022-11-15 19:12:00,,0831.4,5.01,0.00,21.0,20.1,00.0,29.9,22.7,13.8,0000.0,0006.20,0008.61,0005.88
2022-11-15 19:13:00,,0831.4,4.99,0.00,21.0,19.7,00.0,29.9,22.6,13.5,0000.0,0006.15,0008.59,0005.82
2022-11-15 19:14:00,,0831.4,4.98,0.00,20.9,19.5,00.0,29.9,22.6,14.0,0000.0,0006.13,0008.66,0005.77
2022-11-15 19:15:00,,0831.5,5.00,0.00,20.9,19.4,00.0,29.9,22.6,14.3,0000.0,0006.11,0008.68,0005.73
2022-11-15 19:16:00,,0831.4,5.00,0.00,20.9,19.3,00.0,29.9,22.5,13.7,0000.0,0006.08,0008.70,0005.68
2022-11-15 19:17:00,,0831.4,5.00,0.00,20.9,19.2,00.0,29.9,22.5,13.8,0000.0,0006.04,0008.67,0005.64
2022-11-15 19:18:00,,0831.4,5.00,0.00,20.8,19.1,00.0,29.9,22.5,13.4,0000.0,0005.98,0008.68,0005.60
2022-11-15 19:19:00,,0831.4,5.00,0.00,20.8,19.0,00.0,29.9,22.4,13.7,0000.0,0005.93,0009.17,0005.57
2022-11-15 19:20:00,,0831.5,5.00,0.00,20.8,19.0,00.0,29.8,22.4,13.8,0000.0,0005.88,0009.10,0005.53
2022-11-15 19:21:00,,0831.5,5.00,0.00,20.8,19.0,00.0,29.8,22.4,13.5,0000.0,0005.83,0009.04,0005.50
2022-11-15 19:22:00,,0831.5,5.00,0.00,20.7,19.2,00.0,29.8,22.4,13.5,0000.0,0005.82,0009.05,0005.47
2022-11-15 19:23:00,,0831.6,5.02,0.00,20.8,20.5,00.0,29.7,22.7,13.5,0000.0,0005.78,0009.00,0005.44
2022-11-15 19:24:00,,0831.5,5.00,0.00,21.0,21.5,00.0,29.7,23.0,13.5,0000.0,0005.75,0009.00,0005.41
2022-11-15 19:25:00,,0831.5,4.98,0.00,21.1,21.3,00.0,29.8,23.0,13.3,0000.0,0005.73,0008.92,0005.39
2022-11-15 19:26:00,,0831.5,5.00,0.00,21.1,20.8,00.0,29.9,23.0,13.6,0000.0,0005.67,0008.82,0005.37
2022-11-15 19:27:00,,0831.5,5.01,0.00,21.1,20.5,00.0,29.9,22.9,13.6,0000.0,0005.66,0008.89,0005.37
2022-11-15 19:28:00,,0831.5,5.00,0.00,21.1,20.2,00.0,29.9,22.9,13.3,0000.0,0005.67,0008.90,0005.35
2022-11-15 19:29:00,,0831.5,5.00,0.00,21.1,19.9,00.0,29.9,22.8,13.3,0000.0,0005.64,0008.71,0005.34
2022-11-15 19:30:00,,0831.5,5.00,0.00,21.0,19.8,00.0,30.0,22.8,13.1,0000.0,0005.62,0008.01,0005.33
2022-11-15 19:31:00,,0831.5,5.00,0.00,21.0,19.7,00.0,30.0,22.8,13.1,0000.0,0005.60,0007.96,0005.33
2022-11-15 19:32:00,,0831.5,5.00,0.00,21.0,19.7,00.0,30.0,22.7,13.2,0000.0,0005.63,0008.14,0005.32
2022-11-15 19:33:00,,0831.5,5.00,0.00,21.0,19.6,00.0,30.0,22.7,13.3,0000.0,0005.60,0008.18,0005.32
2022-11-15 19:34:00,,0831.4,5.00,0.00,21.0,19.5,00.0,30.0,22.7,12.9,0000.0,0005.62,0008.25,0005.32
2022-11-15 19:35:00,,0831.5,5.01,0.00,21.0,19.5,00.0,30.0,22.7,12.9,0000.0,0005.61,0008.26,0005.32
2022-11-15 19:36:00,,0831.4,5.01,0.00,21.0,19.5,00.0,30.0,22.7,13.4,0000.0,0005.61,0008.27,0005.32
2022-11-15 19:37:00,,0831.4,5.01,0.00,21.0,19.5,00.0,29.9,22.7,13.3,0000.0,0005.60,0008.23,0005.32
2022-11-15 19:38:00,,0831.4,4.99,0.00,21.0,19.4,00.0,29.9,22.7,13.4,0000.0,0005.58,0008.11,0005.32
2022-11-15 19:39:00,,0831.4,4.99,0.00,20.9,19.5,00.0,29.9,22.6,13.2,0000.0,0005.54,0008.01,0005.33
2022-11-15 19:40:00,,0831.4,4.99,0.00,20.9,19.4,00.0,29.9,22.6,13.2,0000.0,0005.58,0008.13,0005.33
2022-11-15 19:41:00,,0831.4,5.00,0.00,20.9,19.4,00.0,29.9,22.7,13.1,0000.0,0005.62,0008.24,0005.32
2022-11-15 19:42:00,,0831.4,5.01,0.00,21.0,19.9,00.0,29.9,22.7,12.7,0000.0,0005.62,0008.28,0005.31
2022-11-15 19:43:00,,0831.4,5.01,0.00,21.1,21.2,00.0,29.8,23.0,12.7,0000.0,0005.60,0008.14,0005.31
2022-11-15 19:44:00,,0831.4,4.99,0.00,21.2,21.8,00.0,29.9,23.2,12.8,0000.0,0005.60,0008.18,0005.29
2022-11-15 19:45:00,,0831.4,4.99,0.00,21.3,21.4,00.0,30.0,23.2,12.7,0000.0,0005.58,0008.11,0005.28
2022-11-15 19:46:00,,0831.4,5.00,0.00,21.3,21.0,00.0,30.0,23.2,13.1,0000.0,0005.56,0008.02,0005.27
2022-11-15 19:47:00,,0831.3,5.00,0.00,21.3,20.7,00.0,30.1,23.1,12.7,0000.0,0005.53,0007.96,0005.25
2022-11-15 19:48:00,,0831.4,5.00,0.00,21.3,20.5,00.0,30.1,23.1,13.3,0000.0,0005.54,0008.04,0005.24
2022-11-15 19:49:00,,0831.3,5.01,0.00,21.3,20.4,00.0,30.1,23.1,13.3,0000.0,0005.55,0008.17,0005.23
2022-11-15 19:50:00,,0831.4,5.01,0.00,21.3,20.3,00.0,30.1,23.1,13.3,0000.0,0005.57,0008.23,0005.23
2022-11-15 19:51:00,,0831.4,5.00,0.00,21.3,20.2,00.0,30.1,23.1,12.9,0000.0,0005.54,0008.16,0005.22
2022-11-15 19:52:00,,0831.4,5.00,0.00,21.3,20.0,00.0,30.1,23.0,12.5,0000.0,0005.53,0008.16,0005.23
2022-11-15 19:53:00,,0831.3,4.99,0.00,21.3,19.9,00.0,30.2,23.0,12.1,0000.0,0005.49,0008.09,0005.21
2022-11-15 19:54:00,,0831.3,4.99,0.00,21.3,19.9,00.0,30.2,23.0,12.4,0000.0,0005.46,0008.06,0005.18
2022-11-15 19:55:00,,0831.3,5.00,0.00,21.3,19.9,00.0,30.2,23.0,12.0,0000.0,0005.46,0008.02,0005.18
2022-11-15 19:56:00,,0831.3,5.00,0.00,21.3,19.9,00.0,30.2,23.0,12.2,0000.0,0005.43,0007.94,0005.18
2022-11-15 19:57:00,,0831.3,5.00,0.00,21.3,19.9,00.0,30.2,23.0,12.1,0000.0,0005.41,0007.96,0005.16
2022-11-15 19:58:00,,0831.3,5.00,0.00,21.3,19.9,00.0,30.2,23.0,12.4,0000.0,0005.39,0008.00,0005.12
2022-11-15 19:59:00,,0831.4,5.00,0.00,21.3,20.0,00.0,30.2,23.0,12.2,0000.0,0005.35,0007.96,0005.09
